Total_Precipitation_Accumulation
0.00 0.00 0.01 0.03 0.00 0.00 0.00 0.00 0.09 0.15 0.07 0.17 0.35 0.20 0.11 0.02 0.01 0.00 0.00 0.00 0.00 0.00 0.00 0.00 0.00 0.00 0.00 0.00 0.00 0.00 0.00 0.00 0.00 0.00 0.00 0.00 0.00 0.00 0.00 0.00 0.01 0.02 0.07 0.11
0.00 0.00 0.06 0.02 0.00 0.00 0.00 0.00 0.00 0.02 0.02 0.16 0.32 0.47 0.14 0.04 0.02 0.06 0.04 0.00 0.00 0.00 0.00 0.00 0.00 0.00 0.00 0.00 0.00 0.00 0.00 0.00 0.00 0.00 0.00 0.00 0.00 0.00 0.00 0.00 0.00 0.02 0.04 0.06
0.00 0.00 0.01 0.00 0.00 0.00 0.00 0.00 0.00 0.00 0.00 0.05 0.10 0.48 0.22 0.13 0.25 0.27 0.06 0.03 0.00 0.00 0.00 0.00 0.00 0.00 0.00 0.00 0.00 0.00 0.00 0.00 0.00 0.00 0.00 0.00 0.00 0.00 0.06 0.00 0.00 0.00 0.02 0.02
0.00 0.00 0.00 0.00 0.00 0.00 0.00 0.00 0.00 0.00 0.00 0.00 0.01 0.27 0.09 0.15 0.31 0.32 0.17 0.06 0.01 0.00 0.00 0.00 0.00 0.00 0.00 0.00 0.00 0.00 0.00 0.00 0.00 0.00 0.00 0.00 0.00 0.00 0.02 0.00 0.00 0.00 0.02 0.00
0.00 0.00 0.00 0.00 0.00 0.00 0.00 0.00 0.00 0.00 0.00 0.00 0.02 0.20 0.16 0.03 0.07 0.17 0.31 0.19 0.06 0.00 0.00 0.00 0.00 0.01 0.00 0.00 0.00 0.00 0.00 0.00 0.00 0.00 0.00 0.01 0.00 0.00 0.03 0.01 0.02 0.01 0.01 0.00
0.00 0.00 0.00 0.00 0.00 0.00 0.00 0.00 0.00 0.00 0.00 0.00 0.01 0.07 0.31 0.13 0.05 0.17 0.30 0.30 0.19 0.05 0.00 0.00 0.00 0.00 0.01 0.00 0.00 0.00 0.00 0.00 0.00 0.00 0.00 0.01 0.01 0.00 0.00 0.03 0.02 0.00 0.00 0.00
0.00 0.00 0.00 0.00 0.00 0.00 0.00 0.00 0.00 0.00 0.00 0.02 0.00 0.11 0.23 0.08 0.17 0.67 0.18 0.28 0.25 0.11 0.01 0.00 0.01 0.00 0.00 0.00 0.00 0.00 0.00 0.00 0.00 0.00 0.00 0.00 0.00 0.00 0.00 0.00 0.01 0.00 0.00 0.00
0.00 0.00 0.00 0.00 0.00 0.00 0.00 0.00 0.00 0.00 0.00 0.00 0.00 0.04 0.12 0.09 0.06 0.41 0.06 0.07 0.14 0.09 0.02 0.00 0.00 0.00 0.00 0.01 0.02 0.00 0.01 0.02 0.01 0.00 0.00 0.00 0.00 0.00 0.00 0.00 0.00 0.00 0.00 0.00
0.00 0.00 0.00 0.00 0.00 0.00 0.00 0.00 0.00 0.00 0.00 0.00 0.01 0.23 0.23 0.18 0.16 0.27 0.06 0.06 0.10 0.09 0.04 0.01 0.00 0.00 0.00 0.00 0.02 0.01 0.00 0.02 0.02 0.00 0.00 0.00 0.00 0.00 0.00 0.00 0.00 0.00 0.00 0.00
0.00 0.00 0.00 0.00 0.00 0.00 0.00 0.00 0.00 0.00 0.00 0.00 0.00 0.17 0.12 0.13 0.21 0.28 0.38 0.22 0.06 0.08 0.06 0.02 0.00 0.00 0.00 0.00 0.00 0.00 0.00 0.00 0.00 0.00 0.00 0.00 0.00 0.00 0.00 0.00 0.00 0.00 0.00 0.00
0.00 0.00 0.00 0.00 0.00 0.00 0.00 0.00 0.00 0.00 0.00 0.00 0.00 0.07 0.08 0.11 0.27 0.35 0.27 0.24 0.56 0.04 0.03 0.04 0.04 0.00 0.00 0.00 0.00 0.00 0.00 0.00 0.00 0.01 0.00 0.00 0.00 0.00 0.00 0.00 0.00 0.00 0.00 0.00
0.00 0.00 0.00 0.00 0.00 0.00 0.00 0.00 0.00 0.00 0.00 0.00 0.00 0.02 0.08 0.13 0.26 0.18 0.11 0.12 0.35 0.04 0.03 0.06 0.10 0.02 0.00 0.00 0.00 0.00 0.00 0.00 0.00 0.00 0.00 0.00 0.00 0.00 0.00 0.00 0.00 0.00 0.00 0.00
0.00 0.00 0.00 0.00 0.00 0.00 0.00 0.00 0.00 0.00 0.00 0.00 0.01 0.19 0.57 0.09 0.03 0.09 0.14 0.16 0.15 0.10 0.02 0.06 0.17 0.14 0.03 0.00 0.00 0.00 0.00 0.00 0.00 0.00 0.00 0.00 0.00 0.00 0.00 0.00 0.00 0.00 0.00 0.00
0.00 0.00 0.00 0.00 0.01 0.00 0.00 0.00 0.00 0.00 0.00 0.00 0.02 0.20 0.57 0.05 0.03 0.10 0.14 0.11 0.12 0.08 0.02 0.01 0.19 0.19 0.06 0.05 0.02 0.00 0.00 0.00 0.00 0.00 0.00 0.00 0.00 0.00 0.00 0.00 0.00 0.00 0.00 0.00
0.00 0.00 0.00 0.00 0.00 0.00 0.00 0.00 0.00 0.00 0.00 0.00 0.00 0.00 0.04 0.01 0.01 0.01 0.02 0.02 0.04 0.03 0.05 0.07 0.13 0.09 0.04 0.06 0.05 0.00 0.00 0.00 0.00 0.00 0.00 0.00 0.00 0.00 0.00 0.00 0.01 0.01 0.00 0.00
0.00 0.00 0.00 0.00 0.00 0.00 0.00 0.00 0.00 0.00 0.00 0.00 0.01 0.02 0.01 0.00 0.00 0.01 0.00 0.01 0.03 0.07 0.15 0.15 0.15 0.09 0.13 0.16 0.08 0.03 0.02 0.03 0.07 0.12 0.16 0.09 0.05 0.04 0.06 0.11 0.11 0.05 0.00 0.01
0.00 0.00 0.00 0.00 0.00 0.00 0.00 0.00 0.00 0.00 0.00 0.00 0.00 0.00 0.01 0.00 0.04 0.06 0.08 0.08 0.08 0.12 0.21 0.32 0.45 0.63 0.83 0.93 0.99 1.25 1.03 0.86 0.76 0.77 0.90 0.61 0.53 0.33 0.27 0.24 0.17 0.06 0.14 0.36
0.00 0.00 0.00 0.00 0.00 0.00 0.00 0.00 0.00 0.00 0.00 0.00 0.00 0.00 0.00 0.01 0.05 0.10 0.14 0.14 0.15 0.17 0.17 0.18 0.34 0.58 0.58 0.74 0.99 1.31 1.60 1.44 1.20 1.41 0.86 0.41 0.39 0.30 0.22 0.29 0.40 0.44 0.60 0.60
0.00 0.00 0.00 0.00 0.00 0.00 0.00 0.00 0.00 0.00 0.00 0.00 0.00 0.00 0.00 0.01 0.06 0.10 0.11 0.12 0.19 0.25 0.35 0.27 0.23 0.34 0.31 0.30 0.37 0.40 0.44 0.75 0.57 0.45 0.30 0.20 0.20 0.17 0.34 0.42 0.45 0.45 0.49 0.54
0.00 0.00 0.00 0.00 0.00 0.00 0.00 0.00 0.00 0.00 0.00 0.00 0.00 0.00 0.00 0.01 0.10 0.11 0.05 0.23 0.57 0.25 0.31 0.29 0.19 0.11 0.06 0.07 0.09 0.11 0.12 0.20 0.66 1.84 0.86 0.54 0.62 0.43 0.33 0.31 0.37 0.46 0.54 0.63
0.00 0.00 0.00 0.00 0.00 0.00 0.00 0.00 0.00 0.00 0.00 0.00 0.00 0.00 0.00 0.00 0.04 0.12 0.12 0.15 0.31 0.32 0.25 0.13 0.11 0.07 0.05 0.03 0.01 0.01 0.02 0.04 0.03 0.16 0.30 0.35 0.70 1.16 1.12 1.03 0.86 0.79 1.17 1.35
0.00 0.00 0.00 0.00 0.00 0.00 0.00 0.00 0.00 0.00 0.00 0.00 0.00 0.00 0.00 0.00 0.00 0.01 0.04 0.06 0.10 0.16 0.17 0.11 0.07 0.10 0.12 0.06 0.03 0.03 0.03 0.01 0.03 0.02 0.03 0.07 0.10 0.15 0.37 0.76 0.59 0.68 1.28 1.70
0.00 0.00 0.00 0.00 0.00 0.00 0.00 0.00 0.00 0.00 0.00 0.00 0.00 0.00 0.00 0.00 0.00 0.00 0.00 0.00 0.01 0.02 0.01 0.00 0.01 0.00 0.01 0.03 0.03 0.02 0.02 0.01 0.02 0.05 0.06 0.03 0.06 0.08 0.12 0.14 0.18 0.29 0.31 0.28
0.00 0.00 0.00 0.00 0.00 0.00 0.00 0.00 0.00 0.00 0.00 0.00 0.00 0.00 0.00 0.01 0.00 0.00 0.00 0.00 0.00 0.00 0.00 0.00 0.00 0.00 0.00 0.03 0.00 0.00 0.00 0.01 0.05 0.12 0.15 0.15 0.16 0.19 0.18 0.17 0.14 0.13 0.17 0.19
0.00 0.00 0.00 0.00 0.00 0.00 0.00 0.00 0.00 0.00 0.00 0.00 0.00 0.00 0.00 0.00 0.00 0.00 0.00 0.00 0.01 0.00 0.00 0.00 0.00 0.00 0.00 0.02 0.03 0.06 0.05 0.18 0.26 0.23 0.20 0.16 0.14 0.20 0.20 0.31 0.25 0.19 0.12 0.14
0.00 0.00 0.00 0.00 0.00 0.00 0.00 0.00 0.00 0.00 0.00 0.00 0.01 0.01 0.00 0.00 0.00 0.01 0.01 0.00 0.00 0.00 0.00 0.00 0.01 0.00 0.03 0.02 0.16 0.16 0.15 0.23 0.13 0.13 0.25 0.43 0.20 0.26 0.34 0.25 0.17 0.21 0.18 0.15